Regional Weather Roundup
Issued by NWS

Home | Current Version | Previous Version | Text Only | Print | Product List | Glossary Off
Versions: 1 2 3 4 5 6 7 8 9 10 11 12 13 14 15 16 17 18 19 20 21 22 23 24 25 26 27 28 29 30 31 32 33 34 35 36 37 38 39 40 41 42 43 44 45 46 47 48 49 50

000
ASUS43 KLSX 192307
RWRMO

WEATHER SUMMARY FOR MISSOURI
NATIONAL WEATHER SERVICE SPRINGFIELD MO
600 PM CDT TUE SEP 19 2017

NOTE: "FAIR" INDICATES FEW OR NO CLOUDS BELOW 12,000 FEET WITH NO
       SIGNIFICANT WEATHER AND/OR OBSTRUCTIONS TO VISIBILITY.
       CURRENT SKY AND/OR WEATHER CONDITIONS ARE NOT AVAILABLE FOR
       CHILLICOTHE AND FARMINGTON.

MOZ001>031-035>038-043-044-053-054-200000-
...NORTHERN AND WESTERN MISSOURI...

CITY           SKY/WX    TMP DP  RH WIND       PRES   REMARKS
KANSAS CTY INT SUNNY     84  70  62 S25G31    29.71F
KANSAS C DTWN  SUNNY     88  70  55 S15G31    29.70F HX  93
LEE`S SUMMIT   SUNNY     86  70  58 S21G26    29.74F HX  90
ST JOSEPH      SUNNY     86  71  60 S22G28    29.68F HX  91
CHILLICOTHE      N/A     85  68  56 S8G17     29.76F
KIRKSVILLE     SUNNY     84  67  56 S13       29.80F

$$
MOZ066>068-077>081-088>096-101>105-200000-
...SOUTHWEST MISSOURI...

CITY           SKY/WX    TMP DP  RH WIND       PRES   REMARKS
SPRINGFIELD    SUNNY     87  65  47 S15       29.82F
JOPLIN         SUNNY     86  68  54 S13G23    29.79F
BRANSON        MOSUNNY   88  63  42 SE10      29.86F

$$
MOZ032>034-039>042-045>050-055>058-069>072-200000-
...CENTRAL MISSOURI...

CITY           SKY/WX    TMP DP  RH WIND       PRES   REMARKS
COLUMBIA       SUNNY     85  69  58 SE7       29.82F
JEFFERSON CITY SUNNY     87  66  49 S6        29.80F
ROLLA          MOSUNNY   87  65  47 S10       29.85F
SEDALIA        MOSUNNY   86  71  60 S13       29.81F HX  91
WHITEMAN AFB   MOSUNNY   84  70  62 S10       29.77F
WARRENSBURG    SUNNY     82  68  61 SE12G21   29.77S

$$
MOZ051-052-059>065-200000-
...EAST CENTRAL MISSOURI...

CITY           SKY/WX    TMP DP  RH WIND       PRES   REMARKS
ST LOUIS INTL  MOSUNNY   88  64  44 CALM      29.85F
SPIRIT OF STL  SUNNY     86  69  56 NE7       29.83F HX  90
ST CHARLES     SUNNY     87  64  46 CALM      29.83F

$$
MOZ072>076-082>087-097>100-106>115-200000-
...SOUTH CENTRAL AND SOUTHEAST MISSOURI...

CITY           SKY/WX    TMP DP  RH WIND       PRES   REMARKS
CAPE GIRARDEAU SUNNY     88  68  51 E8        29.86S HX  91
FARMINGTON     SUNNY     86  68  54 S7        29.88S
POPLAR BLUFF   SUNNY     89  66  46 S6        29.85S HX  91
WEST PLAINS    SUNNY     87  64  46 S7        29.88F

$$



USA.gov is the U.S. government's official web portal to all federal, state and local government web resources and services.